Location: Killarney Provincial Park Observatory
(46.0124°N, 81.4000°W)
Time: 12:34:34
(UTC-04:00)

Iridium 22 - Visible Passes

Search period start: 24 April 2018 00:00
Search period end: 04 May 2018 00:00
Orbit: 776 x 779 km, 86.4° (Epoch: 24 April)

Date Brightness Start Highest point End Pass type
(mag) Time Alt. Az. Time Alt. Az. Time Alt. Az.
24 Apr 8.9 21:31:27 10° W 21:33:39 13° WNW 21:35:52 10° NW visible
25 Apr 8.4 20:55:43 10° SW 20:59:41 22° WNW 21:03:41 10° NNW visible
26 Apr 8.7 05:41:55 10° NNE 05:45:08 16° ENE 05:48:19 10° ESE visible
28 Apr 8.8 20:56:50 10° WSW 20:59:56 16° WNW 21:03:03 10° NNW visible
29 Apr 8.4 05:41:20 10° NNE 05:45:22 22° ENE 05:49:24 10° SE visible
30 Apr 8.8 05:09:04 10° NE 05:11:25 13° ENE 05:13:46 10° E visible
03 May 8.5 05:08:09 10° NNE 05:11:42 18° ENE 05:15:13 10° ESE visible
